Location: Krasnoyarskiy Pitomnik
(51.1333°N, 71.6167°E)
Time: 08:53:32
(UTC+00:00)

Envisat - Pass Details

Date: 07 March 2024
Orbit: 762 x 764 km, 98.3° (Epoch: 21 April)

Event Time Altitude Azimuth Distance (km) Brightness Sun altitude
Rises 23:14:40 0° 12° (NNE) 3,244 6.7 -23.6°
Reaches altitude 10° 23:17:00 10° 9° (N) 2,313 5.9 -23.3°
Maximum altitude 23:22:01 62° 290° (WNW) 860 3.0 -22.5°
Enters shadow 23:22:45 55° 250° (WSW) 915 3.0 -22.4°
